Back to catalog

METEOR 2-8 DEB

LostPO
NORAD 36352·DEBRIS·🇷🇺 Russia

Launched Mar 25, 1982 from Plesetsk Cosmodrome

Loading…

Next Passes (next 24 hours)

TLE

StaleSource: Space-Track

Epoch: Jun 23, 2024, 01:12 UTC

1 36352U 82025AN  24175.05059009  .00020318  00000-0  46841-2 0  9992
2 36352  82.5166 298.4106 0010725 240.4068 119.6064 14.55171551989275

Track METEOR 2-8 DEB in real time with AllMySat

Download on the App Store